Flag for Germany Weather past 2 weeks in Göppingen, Baden-Württemberg, Germany

Now
54 °F

Light rain. Overcast.


Feels Like: 54 °F
Forecast: 46 / 58 °F
Wind: 3 mph from West

Location: Stoetten

Current Time: May 25, 2015 at 5:53:38 PM

Latest Report: May 25, 2015 at 5:00 PM


Visibility: 37 mi

Pressure: 29.91 "Hg

Humidity: 76%

Dew point: 47 °F

Location of GöppingenLocation

Historic Weather in Göppingen — Graph

°F

Göppingen temperature yesterday

Maximum temperature yesterday: 59 °F (at 12:00 PM)
Minimum temperature yesterday: 50 °F (at 5:00 AM)
Average temperature yesterday: 54 °F

Past Weeks' High & Low Weather Summary

 TemperatureHumidityPressure
High77 °F (May 12, 4:00 PM)100% (May 14, 3:00 AM)30.35 "Hg (May 14, 3:00 AM)
Low40 °F (May 20, 1:00 PM)36% (May 12, 3:00 PM)29.70 "Hg (May 18, 8:00 PM)
Average54 °F72%30.06 "Hg
* Reported May 10 5:00 PM — May 25 5:00 PM, Göppingen, Weather by CustomWeather, © 2015

Note: Actual official high and low records may vary slightly from our data, if they occured in-between our weather recording intervals... More about our weather records

Advertising

Göppingen weather history for previous 24 hours

 ConditionsComfort  
Time TempWeatherWind HumidityBarometerVisibility
5:00 PM
Mon, May 25
54 °FLight rain. Overcast.3 mph76%29.91 "Hg37 mi
4:00 PM55 °FLight rain. Overcast.3 mph79%29.93 "Hg34 mi
3:00 PM57 °FOvercast.5 mph74%29.91 "Hg37 mi
2:00 PM60 °FOvercast.5 mph68%29.90 "Hg37 mi
1:00 PM61 °FPartly sunny.5 mph60%29.91 "Hg43 mi
12:00 PM58 °FScattered clouds.2 mph62%29.95 "Hg47 mi
11:00 AM57 °FOvercast.2 mph65%29.96 "Hg47 mi
10:00 AM55 °FOvercast.3 mph75%29.98 "Hg47 mi
9:00 AM53 °FOvercast.2 mph74%30.00 "Hg37 mi
8:00 AM52 °FOvercast.3 mph79%30.01 "Hg34 mi
7:00 AM51 °FOvercast.3 mph80%30.02 "Hg34 mi
6:00 AM51 °FOvercast.3 mph79%30.02 "Hg31 mi
5:00 AM51 °FOvercast.3 mph77%30.02 "Hg12 mi
4:00 AM52 °FOvercast.3 mph75%30.02 "Hg17 mi
3:00 AM52 °FOvercast.2 mph75%30.03 "Hg12 mi
2:00 AM53 °FOvercast.2 mph71%30.03 "Hg17 mi
1:00 AM52 °FOvercast.2 mph77%30.05 "Hg15 mi
12:00 AM53 °FOvercast.2 mph77%30.06 "Hg12 mi
11:00 PM
Sun, May 24
53 °FOvercast.2 mph78%30.06 "Hg10 mi
10:00 PM54 °FOvercast.2 mph75%30.06 "Hg12 mi
9:00 PM54 °FOvercast.2 mph73%30.06 "Hg40 mi
8:00 PM55 °FOvercast.2 mph69%30.05 "Hg47 mi
7:00 PM56 °FOvercast.2 mph68%30.05 "Hg47 mi
6:00 PM56 °FOvercast.2 mph70%30.06 "Hg47 mi
5:00 PM56 °FOvercast.3 mph73%30.06 "Hg47 mi
Weather by CustomWeather, © 2015

See weather overviewHow to use our weather pages